This demonstration page uses our WeatherBlox Daily Observations layout. Learn more.

Left ArrowRight Arrow

31.31129, -92.44514

Hourly Observations for August 23, 2018

Temp ( °F °C ) Dew Point ( °F °C ) Humidity (%) Winds ( mph kmh ) Pressure ( in mb ) Visibility ( mi km ) Precip ( " mm )
12:53 am 00:53 Clear 73 22.8 66 18.9 79 79 NE 3 6 30.08 1019 9 14 0.00 0.03
1:53 am 01:53 Clear 70 21.1 64 17.8 82 82 Calm 30.07 1018 9 14 0.00 0.00
2:53 am 02:53 Clear with Light Rain 68 20 64 17.8 87 87 Calm 30.07 1018 8 13 0.00 0.03
3:53 am 03:53 Clear with Light Rain 68 20 65 18.3 90 90 Calm 30.07 1018 8 13 0.00 0.03
4:53 am 04:53 Clear with Light Rain 67 19.4 64 17.8 91 91 NW 3 6 30.07 1018 8 13 0.00 0.03
5:53 am 05:53 Clear with Mist and Fog 67 19.4 64 17.8 91 91 Calm 30.09 1019 6 10 0.00 0.03
6:53 am 06:53 Sunny with Mist and Fog 69 20.6 65 18.3 87 87 Calm 30.09 1019 5 8 0.00 0.00
7:53 am 07:53 Hazy 72 22.2 67 19.4 84 84 Calm 30.11 1020 6 10 0.00 0.00
8:53 am 08:53 Sunny 79 26.1 67 19.4 67 67 NNE 5 7 30.11 1020 7 11 0.00 0.03
9:53 am 09:53 Sunny 83 28.3 66 18.9 57 57 VRB 3 6 30.11 1020 7 11 0.00 0.00
10:53 am 10:53 Sunny 86 30 65 18.3 49 49 NNE 5 7 30.10 1019 7 11 0.00 0.00
11:53 am 11:53 Sunny 88 31.1 64 17.8 45 45 Calm 30.09 1019 7 11 0.00 0.00
12:53 pm 12:53 Sunny 92 33.3 64 17.8 40 40 Calm 30.06 1018 7 11 0.00 0.03
1:53 pm 13:53 Partly Cloudy 91 32.8 63 17.2 39 39 SE 3 6 30.04 1017 7 11 0.00 0.00
2:53 pm 14:53 Hazy 93 33.9 63 17.2 37 37 NE 5 7 30.02 1017 6 10 0.00 0.00
3:53 pm 15:53 Mostly Sunny 93 33.9 63 17.2 37 37 VRB 6 9 30.00 1016 7 11 0.00 0.00
4:53 pm 16:53 Sunny 94 34.4 61 16.1 33 33 VRB 3 6 29.99 1016 7 11 0.00 0.00
5:53 pm 17:53 Sunny 93 33.9 63 17.2 37 37 NE 6 9 29.98 1015 7 11 0.00 0.00
6:53 pm 18:53 Sunny 89 31.7 63 17.2 42 42 NE 7 11 29.98 1015 7 11 0.00 0.00
7:53 pm 19:53 Hazy 85 29.4 66 18.9 53 53 ENE 6 9 29.98 1015 6 10 0.00 0.00
8:53 pm 20:53 Clear 82 27.8 66 18.9 58 58 ENE 3 6 29.99 1016 7 11 0.00 0.00
9:53 pm 21:53 Clear 81 27.2 67 19.4 62 62 ENE 7 11 30.01 1016 7 11 0.00 0.00
10:53 pm 22:53 Clear 81 27.2 67 19.4 62 62 E 8 13 30.01 1016 7 11 0.00 0.00
11:53 pm 23:53 Clear 79 26.1 67 19.4 67 67 E 7 11 30.00 1016 7 11 0.00 0.00

Powered by AerisWeather